Weather Roundup
Issued by NWS Chicago, IL

Home | Current Version | Previous Version | Graphics & Text | Print | Product List | Glossary On
Versions: 1 2 3 4 5 6 7 8 9 10 11 12 13 14 15 16 17 18 19 20 21 22 23 24 25 26 27 28 29 30 31 32 33 34 35 36 37 38 39 40 41 42 43 44 45 46 47 48 49 50
000
NZUS59 KLOT 012100
HRRLOT

CHICAGO AREA WEATHER ROUNDUP
NATIONAL WEATHER SERVICE CHICAGO/ROMEOVILLE IL
400 PM CDT FRI AUG 01 2014

NOTE: "FAIR" INDICATES FEW OR NO CLOUDS BELOW 12,000 FEET WITH NO
SIGNIFICANT WEATHER AND/OR OBSTRUCTIONS TO VISIBILITY.

* THESE STATIONS ARE NOT UNDER NWS QUALITY CONTROL. THEY ALSO MAY NOT
  REPORT WEATHER SUCH AS PRECIPITATION OR FOG.

ILZ005-006-012>014-019>023-012200-
NORTHEAST ILLINOIS

CITY           SKY/WX    TMP DP  RH WIND       PRES   REMARKS
OHARE          PTSUNNY   78  57  48 SE7       30.07S
MIDWAY         CLOUDY    74  66  76 N6        30.07S
AURORA         PTSUNNY   82  60  47 SW6       30.06F HX  82
WAUKEGAN       MOSUNNY   77  59  53 SE10      30.06S
DUPAGE AIRPORT MOSUNNY   83  59  44 W5        30.06S HX  83
WHEELING       PTSUNNY   79  62  56 SE8       30.08S HX  80
NORTHERLY IS     N/A     70  61  73 SE14        N/A
$$

WIZ051-052-058>065-066-070>072-012200-
SOUTHEAST WISCONSIN

CITY           SKY/WX    TMP DP  RH WIND       PRES   REMARKS
MILWAUKEE      LGT RAIN  74  63  68 E18G25    30.05R
KENOSHA*       PTSUNNY   80  60  50 E12       30.06S HX  81
RACINE*        SUNNY     80  60  50 S14       30.07S HX  81
WAUKESHA       MOSUNNY   81  55  41 NW5       30.06S HX  80
$$

INZ001>003-010>013-019-020-012200-
NORTHWEST INDIANA

CITY           SKY/WX    TMP DP  RH WIND       PRES   REMARKS
GARY*          MOSUNNY   75  61  60 SE12      30.10S
MICHIGAN CITY* NOT AVBL
RENSSELAER*    NOT AVBL
VALPARAISO     LGT RAIN  64  61  90 S7        30.11F
$$

LMZ740>746-012200-
SOUTHERN LAKE MICHIGAN

STATION/POSITION TIME  SKY/WX   TEMP WIND        PRES    VSBY
                                AIR  DIR/SP/G
                 (UTC)          (F)  (DEG/KT/KT) (MB)    (MI)
HARRISON CRIB    2000            71  310/  3/  5   N/A
BURNHAM HARBOR   2100            71  130/ 11       N/A
CALUMET HARBOR   2000            74   80/ 10/ 13 1017.3R
BURNS HARBOR     2100            72  150/  9/ 14   N/A
MICHIGAN CITY    2000            71  150/ 11/ 16   N/A
$$

ABBREVIATIONS USED IN REMARKS
   TC - TEMPERATURE IN CELSIUS
  WCI - WIND CHILL INDEX
   HX - HEAT INDEX
  VSB - VISIBILITY
$$


USA.gov is the U.S. government's official web portal to all federal, state and local government web resources and services.